Flag for U.S.A. Weather past 2 weeks in Dover, Delaware, U.S.A.

Now
52 °F

Clear.


Feels Like: 48 °F
Forecast: 46 / 64 °F
Wind: 9 mph from West

Location: Dover Air Force Base

Current Time: Apr 27, 2015 at 10:37:34 PM

Latest Report: Apr 27, 2015 at 9:58 PM


Visibility: 10 mi

Pressure: 29.76 "Hg

Humidity: 52%

Dew point: 35 °F

Location of DoverLocation

Historic Weather in Dover — Graph

°F

Dover temperature yesterday

Maximum temperature yesterday: 61 °F (at 1:58 PM)
Minimum temperature yesterday: 42 °F (at 11:58 PM)
Average temperature yesterday: 50 °F

Past Weeks' High & Low Weather Summary

 TemperatureHumidityPressure
High78 °F (Apr 20, 2:58 PM)100% (Apr 13, 6:58 AM)30.43 "Hg (Apr 13, 6:58 AM)
Low36 °F (Apr 25, 5:58 AM)25% (Apr 15, 3:58 PM)29.53 "Hg (Apr 21, 1:58 AM)
Average56 °F69%29.93 "Hg
* Reported Apr 12 8:58 PM — Apr 27 8:58 PM, Dover, Weather by CustomWeather, © 2015

Note: Actual official high and low records may vary slightly from our data, if they occured in-between our weather recording intervals... More about our weather records

Advertising

Dover weather history for previous 24 hours

 ConditionsComfort  
Time TempWeatherWind HumidityBarometerVisibility
8:58 PM
Mon, Apr 27
54 °FPassing clouds.12 mph48%29.76 "Hg10 mi
7:58 PM56 °FOvercast.14 mph45%29.74 "Hg10 mi
6:58 PM56 °FOvercast.13 mph42%29.73 "Hg10 mi
5:58 PM58 °FOvercast.13 mph43%29.71 "Hg10 mi
4:58 PM58 °FOvercast.18 mph40%29.70 "Hg7 mi
3:58 PM59 °FPartly sunny.16 mph40%29.69 "Hg8 mi
2:58 PM61 °FScattered clouds.15 mph38%29.70 "Hg9 mi
1:58 PM58 °FOvercast.18 mph42%29.72 "Hg10 mi
12:58 PM61 °FScattered clouds.16 mph39%29.72 "Hg7 mi
11:58 AM58 °FPassing clouds.7 mph48%29.72 "Hg10 mi
10:58 AM56 °FOvercast.14 mph51%29.72 "Hg10 mi
9:58 AM55 °FOvercast.14 mph52%29.73 "Hg10 mi
8:58 AM53 °FOvercast.9 mph54%29.72 "Hg10 mi
7:58 AM48 °FPartly sunny.6 mph68%29.71 "Hg10 mi
6:58 AM45 °FOvercast.5 mph77%29.70 "Hg10 mi
5:58 AM44 °FOvercast.6 mph79%29.69 "Hg10 mi
4:58 AM42 °FOvercast.6 mph92%29.69 "Hg10 mi
3:58 AM42 °FOvercast.5 mph85%29.69 "Hg10 mi
2:58 AM41 °FOvercast.3 mph87%29.69 "Hg10 mi
1:58 AM41 °FClear.6 mph83%29.70 "Hg10 mi
12:58 AM42 °FClear.2 mph77%29.70 "Hg10 mi
11:58 PM
Sun, Apr 26
42 °FClear.3 mph74%29.70 "Hg10 mi
10:58 PM45 °FClear.6 mph69%29.69 "Hg10 mi
Weather by CustomWeather, © 2015

See weather overviewHow to use our weather pages